Location: Orange
(33.2833°S, 149.1000°E)
Time: 19:31:28
(UTC+10:00)

N. Korean satellite - Visible Passes

Search period start: 15 May 2021 00:00
Search period end: 25 May 2021 00:00
Orbit: 450 x 501 km, 97.2° (Epoch: 14 May)

Date Brightness Start Highest point End Pass type
(mag) Time Alt. Az. Time Alt. Az. Time Alt. Az.
15 May 9.3 04:38:50 10° NNE 04:39:07 12° NNE 04:39:07 12° NNE visible
15 May 7.8 17:41:33 10° S 17:45:10 46° WSW 17:48:42 10° NNW visible
17 May 9.0 05:18:20 10° NNW 05:18:28 11° NNW 05:18:28 11° NNW visible
17 May 9.6 18:21:51 10° SW 18:23:55 14° WSW 18:25:58 10° WNW visible
18 May 9.1 04:50:41 10° N 04:51:02 12° N 04:51:02 12° N visible
18 May 8.6 17:53:40 10° S 17:57:01 31° WSW 18:00:18 10° NW visible
21 May 9.1 05:02:39 10° N 05:02:54 12° N 05:02:54 12° N visible
21 May 9.2 18:05:53 10° SSW 18:08:48 22° WSW 18:11:41 10° WNW visible
22 May 9.5 04:35:25 10° NNE 04:35:28 10° NNE 04:35:28 10° NNE visible
22 May 7.6 17:38:11 10° S 17:41:49 50° WSW 17:45:22 10° NNW visible
24 May 9.2 05:14:43 10° NNW 05:14:45 10° NNW 05:14:45 10° NNW visible
24 May 9.6 18:18:16 10° SSW 18:20:31 16° WSW 18:22:45 10° WNW visible
